| time (UTC) | temp F | wind direction | speed MPH | gust MPH | rain 1hr in | rain 24hr in | rain mn in | humidity % | barometer mb |
| 20260503203644 | 53 | 270 | 6.0 | 9.0 | 0.00 | 0.00 | 0.00 | 43 | 1009.8 |
| 20260503203142 | 52 | 306 | 2.0 | 2.0 | 0.00 | 0.00 | 0.00 | 45 | 1009.8 |
| 20260503202638 | 53 | 313 | 6.0 | 7.0 | 0.00 | 0.00 | 0.00 | 42 | 1009.9 |
| 20260503202137 | 52 | 252 | 4.0 | 5.0 | 0.00 | 0.00 | 0.00 | 43 | 1010.0 |
| 20260503201634 | 52 | 247 | 7.0 | 10.0 | 0.00 | 0.00 | 0.00 | 42 | 1010.0 |
| 20260503201131 | 54 | 342 | 3.0 | 3.0 | 0.00 | 0.00 | 0.00 | 43 | 1009.9 |
| 20260503200627 | 53 | 346 | 3.0 | 5.0 | 0.00 | 0.00 | 0.00 | 41 | 1009.7 |
| 20260503200124 | 54 | 252 | 6.0 | 8.0 | 0.00 | 0.00 | 0.00 | 43 | 1010.0 |
| 20260503195621 | 53 | 79 | 1.0 | 2.0 | 0.00 | 0.00 | 0.00 | 42 | 1010.0 |
| 20260503195118 | 51 | 317 | 4.0 | 5.0 | 0.00 | 0.00 | 0.00 | 44 | 1010.0 |
| 20260503194615 | 52 | 281 | 5.0 | 7.0 | 0.00 | 0.00 | 0.00 | 42 | 1010.2 |
| 20260503194110 | 53 | 236 | 11.0 | 13.0 | 0.00 | 0.00 | 0.00 | 39 | 1009.9 |
| 20260503193607 | 53 | 272 | 4.0 | 5.0 | 0.00 | 0.00 | 0.00 | 40 | 1010.0 |
| 20260503193102 | 52 | 254 | 8.0 | 9.0 | 0.00 | 0.00 | 0.00 | 40 | 1010.6 |
| 20260503192558 | 53 | 276 | 3.0 | 5.0 | 0.00 | 0.00 | 0.00 | 40 | 1010.3 |
| 20260503192054 | 52 | 220 | 4.0 | 5.0 | 0.00 | 0.00 | 0.00 | 41 | 1010.6 |
| 20260503191551 | 51 | 227 | 9.0 | 9.0 | 0.00 | 0.00 | 0.00 | 41 | 1010.4 |
| 20260503191048 | 51 | 296 | 4.0 | 5.0 | 0.00 | 0.00 | 0.00 | 41 | 1010.8 |
| 20260503190545 | 52 | 248 | 5.0 | 6.0 | 0.00 | 0.00 | 0.00 | 41 | 1011.0 |
| 20260503190042 | 51 | 10 | 5.0 | 7.0 | 0.00 | 0.00 | 0.00 | 43 | 1010.7 |
| 20260503185539 | 51 | 291 | 3.0 | 5.0 | 0.00 | 0.00 | 0.00 | 43 | 1011.0 |
| 20260503185038 | 51 | 234 | 6.0 | 8.0 | 0.00 | 0.00 | 0.00 | 45 | 1010.9 |
| 20260503184535 | 52 | 337 | 5.0 | 6.0 | 0.00 | 0.00 | 0.00 | 42 | 1010.8 |
| 20260503184032 | 51 | 178 | 3.0 | 3.0 | 0.00 | 0.00 | 0.00 | 41 | 1010.9 |
| 20260503183528 | 50 | 311 | 2.0 | 3.0 | 0.00 | 0.00 | 0.00 | 43 | 1011.3 |
| 20260503183025 | 50 | 193 | 8.0 | 13.0 | 0.00 | 0.00 | 0.00 | 41 | 1011.4 |
| 20260503182524 | 52 | 292 | 3.0 | 3.0 | 0.00 | 0.00 | 0.00 | 43 | 1011.3 |
| 20260503182021 | 51 | 247 | 4.0 | 6.0 | 0.00 | 0.00 | 0.00 | 44 | 1011.4 |
| 20260503181518 | 50 | 303 | 6.0 | 8.0 | 0.00 | 0.00 | 0.00 | 46 | 1011.2 |
| 20260503181014 | 49 | 249 | 5.0 | 6.0 | 0.00 | 0.00 | 0.00 | 46 | 1011.3 |
| 20260503180512 | 49 | 237 | 7.0 | 8.0 | 0.00 | 0.00 | 0.00 | 43 | 1011.3 |
| 20260503180009 | 50 | 260 | 7.0 | 10.0 | 0.00 | 0.00 | 0.00 | 47 | 1011.2 |
| 20260503175506 | 49 | 290 | 4.0 | 5.0 | 0.00 | 0.00 | 0.00 | 45 | 1011.3 |
| 20260503175003 | 48 | 225 | 3.0 | 5.0 | 0.00 | 0.00 | 0.00 | 45 | 1011.4 |
| 20260503174501 | 47 | 315 | 5.0 | 6.0 | 0.00 | 0.00 | 0.00 | 45 | 1011.5 |
| 20260503173956 | 48 | 270 | 7.0 | 8.0 | 0.00 | 0.00 | 0.00 | 44 | 1011.6 |
| 20260503173452 | 47 | 253 | 3.0 | 3.0 | 0.00 | 0.00 | 0.00 | 46 | 1011.6 |
| 20260503172948 | 47 | 269 | 4.0 | 6.0 | 0.00 | 0.00 | 0.00 | 45 | 1011.6 |
| 20260503172446 | 48 | 304 | 9.0 | 11.0 | 0.00 | 0.00 | 0.00 | 43 | 1011.9 |
| 20260503171942 | 48 | 306 | 3.0 | 3.0 | 0.00 | 0.00 | 0.00 | 44 | 1011.6 |
| 20260503171439 | 49 | 171 | 2.0 | 3.0 | 0.00 | 0.00 | 0.00 | 46 | 1011.7 |
| 20260503170937 | 49 | 268 | 5.0 | 6.0 | 0.00 | 0.00 | 0.00 | 43 | 1011.3 |
| 20260503170432 | 47 | 345 | 3.0 | 3.0 | 0.00 | 0.00 | 0.00 | 45 | 1011.4 |
| 20260503150825 | 44 | 276 | 3.0 | 5.0 | 0.00 | 0.00 | 0.00 | 56 | 1012.3 |
| 20260503150321 | 42 | 283 | 3.0 | 5.0 | 0.00 | 0.00 | 0.00 | 54 | 1012.4 |
| 20260503140246 | 43 | 293 | 4.0 | 6.0 | 0.00 | 0.00 | 0.00 | 60 | 1012.4 |
| 20260503131215 | 39 | 357 | 2.0 | 2.0 | 0.00 | 0.00 | 0.00 | 75 | 1013.1 |
| 20260503130713 | 40 | 292 | 4.0 | 5.0 | 0.00 | 0.00 | 0.00 | 75 | 1012.9 |
| 20260503130210 | 40 | 344 | 3.0 | 3.0 | 0.00 | 0.00 | 0.00 | 75 | 1012.8 |
| 20260503120135 | 37 | 335 | 2.0 | 2.0 | 0.00 | 0.00 | 0.00 | 83 | 1012.6 |
| 20260503110603 | 35 | 252 | 2.0 | 2.0 | 0.00 | 0.00 | 0.00 | 86 | 1012.2 |
| 20260503090450 | 33 | 344 | 0.0 | 0.0 | 0.00 | 0.00 | 0.00 | 91 | 1011.2 |
| 20260503081416 | 33 | 325 | 1.0 | 1.0 | 0.00 | 0.00 | 0.00 | 90 | 1011.3 |
| 20260503080914 | 33 | 325 | 1.0 | 1.0 | 0.00 | 0.00 | 0.00 | 90 | 1011.4 |
| 20260503080410 | 33 | 303 | 1.0 | 1.0 | 0.00 | 0.00 | 0.00 | 90 | 1011.5 |
| 20260503072846 | 33 | 17 | 0.0 | 0.0 | 0.00 | 0.00 | 0.00 | 90 | 1011.5 |
| 20260503072338 | 33 | 356 | 0.0 | 0.0 | 0.00 | 0.00 | 0.00 | 89 | 1011.6 |
| 20260503071834 | 33 | 357 | 0.0 | 0.0 | 0.00 | 0.00 | 0.00 | 88 | 1011.3 |
| 20260503071331 | 34 | 351 | 0.0 | 1.0 | 0.00 | 0.00 | 0.00 | 88 | 1011.4 |
| 20260503070827 | 34 | 349 | 2.0 | 2.0 | 0.00 | 0.00 | 0.00 | 87 | 1011.5 |
| 20260503070326 | 34 | 320 | 0.0 | 1.0 | 0.00 | 0.00 | 0.00 | 87 | 1011.4 |
| 20260503060238 | 35 | 359 | 1.0 | 1.0 | 0.00 | 0.00 | 0.00 | 84 | 1011.8 |
| 20260503054726 | 35 | 317 | 3.0 | 3.0 | 0.00 | 0.00 | 0.00 | 82 | 1012.0 |
| 20260503054222 | 36 | 347 | 0.0 | 1.0 | 0.00 | 0.00 | 0.00 | 81 | 1012.0 |
| 20260503053720 | 36 | 271 | 3.0 | 3.0 | 0.00 | 0.00 | 0.00 | 80 | 1012.3 |
| 20260503053219 | 36 | 301 | 2.0 | 2.0 | 0.00 | 0.00 | 0.00 | 80 | 1012.0 |
| 20260503052715 | 37 | 295 | 4.0 | 5.0 | 0.00 | 0.00 | 0.00 | 79 | 1012.1 |
| 20260503052212 | 36 | 249 | 4.0 | 5.0 | 0.00 | 0.00 | 0.00 | 79 | 1012.3 |
| 20260503051707 | 37 | 301 | 3.0 | 5.0 | 0.00 | 0.00 | 0.00 | 79 | 1012.2 |
| 20260503051205 | 37 | 293 | 4.0 | 5.0 | 0.00 | 0.00 | 0.00 | 77 | 1012.2 |
| 20260503050701 | 37 | 327 | 3.0 | 3.0 | 0.00 | 0.00 | 0.00 | 79 | 1012.1 |
| 20260503050158 | 37 | 343 | 1.0 | 1.0 | 0.00 | 0.00 | 0.00 | 79 | 1012.1 |
| 20260503045655 | 37 | 6 | 0.0 | 0.0 | 0.00 | 0.00 | 0.00 | 78 | 1012.3 |
| 20260503045153 | 37 | 291 | 2.0 | 2.0 | 0.00 | 0.00 | 0.00 | 77 | 1012.5 |
| 20260503044649 | 37 | 350 | 0.0 | 1.0 | 0.00 | 0.00 | 0.00 | 78 | 1012.3 |
| 20260503044147 | 37 | 10 | 1.0 | 1.0 | 0.00 | 0.00 | 0.00 | 79 | 1012.4 |
| 20260503043643 | 38 | 350 | 0.0 | 0.0 | 0.00 | 0.00 | 0.00 | 76 | 1012.4 |
| 20260503043140 | 38 | 291 | 2.0 | 3.0 | 0.00 | 0.00 | 0.00 | 77 | 1012.4 |
| 20260503042636 | 38 | 32 | 1.0 | 1.0 | 0.00 | 0.00 | 0.00 | 76 | 1012.4 |
| 20260503042132 | 38 | 335 | 1.0 | 1.0 | 0.00 | 0.00 | 0.00 | 76 | 1012.4 |
| 20260503041629 | 38 | 347 | 1.0 | 2.0 | 0.00 | 0.00 | 0.00 | 75 | 1012.5 |
| 20260503041127 | 38 | 32 | 1.0 | 1.0 | 0.00 | 0.00 | 0.00 | 75 | 1012.5 |
| 20260503040624 | 39 | 343 | 0.0 | 1.0 | 0.00 | 0.00 | 0.00 | 74 | 1012.4 |
| 20260503040122 | 39 | 278 | 1.0 | 1.0 | 0.00 | 0.00 | 0.00 | 73 | 1012.5 |
| 20260503035618 | 39 | 320 | 1.0 | 1.0 | 0.00 | 0.03 | 0.03 | 73 | 1012.4 |
| 20260503035116 | 39 | 337 | 0.0 | 1.0 | 0.00 | 0.03 | 0.03 | 72 | 1012.3 |
| 20260503034613 | 39 | 343 | 1.0 | 1.0 | 0.00 | 0.03 | 0.03 | 72 | 1012.3 |
| 20260503034110 | 39 | 345 | 0.0 | 0.0 | 0.00 | 0.03 | 0.03 | 71 | 1012.2 |
| 20260503033607 | 39 | 5 | 2.0 | 2.0 | 0.00 | 0.03 | 0.03 | 71 | 1012.2 |
| 20260503033105 | 39 | 318 | 3.0 | 5.0 | 0.00 | 0.03 | 0.03 | 71 | 1012.2 |
| 20260503032603 | 39 | 320 | 1.0 | 1.0 | 0.00 | 0.03 | 0.03 | 71 | 1012.5 |
| 20260503032101 | 40 | 350 | 1.0 | 2.0 | 0.00 | 0.03 | 0.03 | 71 | 1012.3 |
| 20260503031558 | 40 | 336 | 2.0 | 2.0 | 0.00 | 0.03 | 0.03 | 70 | 1012.3 |
| 20260503031055 | 40 | 353 | 1.0 | 2.0 | 0.00 | 0.03 | 0.03 | 70 | 1012.4 |
| 20260503030551 | 40 | 324 | 3.0 | 3.0 | 0.00 | 0.03 | 0.03 | 69 | 1012.3 |
| 20260503030049 | 40 | 311 | 2.0 | 2.0 | 0.00 | 0.03 | 0.03 | 71 | 1012.4 |
| 20260503025545 | 40 | 306 | 2.0 | 2.0 | 0.00 | 0.03 | 0.03 | 69 | 1012.4 |
| 20260503025043 | 40 | 341 | 2.0 | 2.0 | 0.00 | 0.03 | 0.03 | 71 | 1012.5 |
| 20260503024539 | 40 | 327 | 1.0 | 1.0 | 0.00 | 0.03 | 0.03 | 70 | 1012.8 |
| 20260503024037 | 40 | 323 | 2.0 | 2.0 | 0.00 | 0.03 | 0.03 | 69 | 1012.8 |
| 20260503023533 | 41 | 300 | 1.0 | 1.0 | 0.00 | 0.03 | 0.03 | 69 | 1012.2 |
| 20260503023031 | 41 | 328 | 2.0 | 2.0 | 0.00 | 0.03 | 0.03 | 69 | 1012.4 |
| 20260503022526 | 41 | 291 | 3.0 | 5.0 | 0.00 | 0.03 | 0.03 | 68 | 1012.6 |
| 20260503022021 | 41 | 328 | 2.0 | 2.0 | 0.00 | 0.03 | 0.03 | 68 | 1012.5 |
| 20260503021518 | 41 | 335 | 1.0 | 1.0 | 0.00 | 0.03 | 0.03 | 68 | 1012.8 |
| 20260503021015 | 41 | 323 | 2.0 | 2.0 | 0.00 | 0.03 | 0.03 | 68 | 1012.6 |
| 20260503020512 | 41 | 337 | 2.0 | 2.0 | 0.00 | 0.03 | 0.03 | 70 | 1012.8 |
| 20260503020009 | 41 | 320 | 2.0 | 3.0 | 0.00 | 0.03 | 0.03 | 68 | 1012.6 |
| 20260503015506 | 41 | 317 | 2.0 | 2.0 | 0.00 | 0.03 | 0.03 | 69 | 1012.4 |
| 20260503015003 | 41 | 329 | 1.0 | 2.0 | 0.00 | 0.03 | 0.03 | 69 | 1012.8 |
| 20260503014459 | 41 | 333 | 1.0 | 1.0 | 0.00 | 0.03 | 0.03 | 70 | 1012.6 |
| 20260503013957 | 41 | 351 | 0.0 | 1.0 | 0.00 | 0.03 | 0.03 | 68 | 1012.6 |
| 20260503013454 | 41 | 343 | 1.0 | 1.0 | 0.00 | 0.03 | 0.03 | 70 | 1012.6 |
| 20260503012951 | 41 | 335 | 1.0 | 1.0 | 0.00 | 0.03 | 0.03 | 67 | 1012.9 |
| 20260503012449 | 41 | 345 | 1.0 | 1.0 | 0.00 | 0.03 | 0.03 | 70 | 1012.8 |
| 20260503011944 | 41 | 337 | 1.0 | 1.0 | 0.00 | 0.03 | 0.03 | 68 | 1012.6 |
| 20260503011442 | 41 | 328 | 1.0 | 1.0 | 0.00 | 0.03 | 0.03 | 68 | 1012.5 |
| 20260503010939 | 42 | 341 | 0.0 | 1.0 | 0.00 | 0.03 | 0.03 | 65 | 1012.5 |
| 20260503010436 | 42 | 343 | 0.0 | 1.0 | 0.00 | 0.03 | 0.03 | 66 | 1012.6 |
| 20260503005933 | 41 | 355 | 0.0 | 1.0 | 0.00 | 0.03 | 0.03 | 67 | 1012.5 |
| 20260503005430 | 42 | 345 | 1.0 | 1.0 | 0.00 | 0.03 | 0.03 | 67 | 1012.2 |
| 20260503004927 | 42 | 329 | 1.0 | 1.0 | 0.00 | 0.03 | 0.03 | 65 | 1012.4 |
| 20260503004424 | 42 | 340 | 1.0 | 1.0 | 0.00 | 0.03 | 0.03 | 65 | 1012.2 |
| 20260503003921 | 42 | 332 | 1.0 | 1.0 | 0.00 | 0.03 | 0.03 | 65 | 1012.0 |
| 20260503003418 | 42 | 343 | 1.0 | 1.0 | 0.00 | 0.03 | 0.03 | 65 | 1012.2 |
| 20260503002915 | 43 | 335 | 2.0 | 2.0 | 0.00 | 0.03 | 0.03 | 64 | 1012.2 |
| 20260503002412 | 43 | 328 | 1.0 | 1.0 | 0.00 | 0.03 | 0.03 | 63 | 1012.2 |
| 20260503001908 | 43 | 0 | 1.0 | 2.0 | 0.00 | 0.03 | 0.03 | 64 | 1011.9 |
| 20260503001405 | 43 | 327 | 1.0 | 2.0 | 0.00 | 0.03 | 0.03 | 63 | 1012.1 |
| 20260503000903 | 43 | 301 | 2.0 | 2.0 | 0.00 | 0.03 | 0.03 | 62 | 1011.8 |
| 20260503000400 | 43 | 335 | 2.0 | 2.0 | 0.00 | 0.03 | 0.03 | 60 | 1012.0 |
| 20260502235856 | 44 | 281 | 3.0 | 3.0 | 0.00 | 0.03 | 0.03 | 62 | 1011.9 |
| 20260502235353 | 44 | 336 | 2.0 | 2.0 | 0.00 | 0.03 | 0.03 | 60 | 1012.0 |
| 20260502234851 | 44 | 328 | 1.0 | 1.0 | 0.00 | 0.03 | 0.03 | 61 | 1012.0 |
| 20260502234347 | 44 | 320 | 3.0 | 3.0 | 0.00 | 0.03 | 0.03 | 60 | 1012.0 |
| 20260502233844 | 44 | 311 | 2.0 | 2.0 | 0.00 | 0.03 | 0.03 | 60 | 1011.9 |
| 20260502233340 | 44 | 327 | 1.0 | 1.0 | 0.00 | 0.03 | 0.03 | 59 | 1011.8 |
| 20260502232837 | 44 | 239 | 2.0 | 2.0 | 0.00 | 0.03 | 0.03 | 57 | 1011.9 |
| 20260502232334 | 45 | 351 | 0.0 | 1.0 | 0.00 | 0.03 | 0.03 | 59 | 1011.9 |
| 20260502231830 | 45 | 317 | 2.0 | 2.0 | 0.00 | 0.03 | 0.03 | 56 | 1012.0 |
| 20260502231328 | 45 | 344 | 1.0 | 1.0 | 0.00 | 0.03 | 0.03 | 56 | 1011.8 |
| 20260502230826 | 45 | 326 | 2.0 | 2.0 | 0.00 | 0.03 | 0.03 | 56 | 1011.7 |
| 20260502230324 | 45 | 308 | 2.0 | 2.0 | 0.00 | 0.03 | 0.03 | 56 | 1011.7 |
| 20260502225820 | 45 | 302 | 3.0 | 3.0 | 0.00 | 0.03 | 0.03 | 55 | 1011.7 |
| 20260502225317 | 46 | 126 | 2.0 | 2.0 | 0.00 | 0.03 | 0.03 | 57 | 1011.4 |
| 20260502224814 | 46 | 6 | 3.0 | 5.0 | 0.00 | 0.03 | 0.03 | 54 | 1011.6 |
| 20260502224310 | 46 | 341 | 1.0 | 2.0 | 0.00 | 0.03 | 0.03 | 54 | 1011.5 |
| 20260502223808 | 46 | 332 | 2.0 | 2.0 | 0.00 | 0.03 | 0.03 | 55 | 1011.5 |
| 20260502223306 | 46 | 325 | 1.0 | 2.0 | 0.00 | 0.03 | 0.03 | 55 | 1011.6 |
| 20260502222803 | 46 | 336 | 3.0 | 5.0 | 0.00 | 0.03 | 0.03 | 53 | 1011.5 |
| 20260502222300 | 46 | 312 | 3.0 | 3.0 | 0.00 | 0.03 | 0.03 | 52 | 1011.5 |
| 20260502221755 | 46 | 306 | 2.0 | 2.0 | 0.00 | 0.03 | 0.03 | 56 | 1011.5 |
| 20260502221252 | 46 | 294 | 4.0 | 5.0 | 0.00 | 0.03 | 0.03 | 53 | 1011.4 |
| 20260502220749 | 46 | 312 | 3.0 | 3.0 | 0.00 | 0.03 | 0.03 | 52 | 1011.4 |
| 20260502220245 | 47 | 317 | 3.0 | 3.0 | 0.00 | 0.03 | 0.03 | 51 | 1011.5 |
| 20260502215742 | 47 | 110 | 3.0 | 5.0 | 0.00 | 0.03 | 0.03 | 52 | 1011.5 |
| 20260502215239 | 47 | 281 | 2.0 | 2.0 | 0.00 | 0.03 | 0.03 | 51 | 1011.5 |
| 20260502214736 | 47 | 316 | 2.0 | 3.0 | 0.00 | 0.03 | 0.03 | 51 | 1011.3 |
| 20260502214235 | 48 | 303 | 2.0 | 2.0 | 0.00 | 0.03 | 0.03 | 48 | 1011.4 |
| 20260502213731 | 49 | 255 | 2.0 | 2.0 | 0.00 | 0.03 | 0.03 | 51 | 1011.1 |
| 20260502213228 | 48 | 340 | 3.0 | 3.0 | 0.00 | 0.03 | 0.03 | 49 | 1011.3 |
| 20260502212726 | 48 | 345 | 3.0 | 3.0 | 0.00 | 0.03 | 0.03 | 48 | 1011.0 |
| 20260502212224 | 47 | 357 | 1.0 | 2.0 | 0.00 | 0.03 | 0.03 | 49 | 1011.1 |
| 20260502211720 | 48 | 299 | 3.0 | 3.0 | 0.00 | 0.03 | 0.03 | 49 | 1011.2 |
| 20260502211217 | 48 | 329 | 2.0 | 2.0 | 0.00 | 0.03 | 0.03 | 49 | 1011.0 |
| 20260502210714 | 48 | 279 | 1.0 | 2.0 | 0.00 | 0.03 | 0.03 | 53 | 1011.1 |
| 20260502210211 | 48 | 333 | 1.0 | 2.0 | 0.00 | 0.03 | 0.03 | 49 | 1011.1 |
| 20260502205708 | 48 | 280 | 4.0 | 6.0 | 0.00 | 0.03 | 0.03 | 50 | 1011.3 |
| 20260502205204 | 50 | 286 | 5.0 | 7.0 | 0.00 | 0.03 | 0.03 | 47 | 1011.2 |
| 20260502204701 | 49 | 245 | 4.0 | 5.0 | 0.00 | 0.03 | 0.03 | 48 | 1011.4 |
| 20260502204159 | 48 | 281 | 4.0 | 5.0 | 0.00 | 0.03 | 0.03 | 49 | 1011.1 |